World > North America > United States > Ohio > Orient  

Orient, OH Hourly Weather Updates

Feedback E-mail the Weather

Quick Clicks

Orient, OH Weather Maps

°F °C°F °C
Orient Weather Map
UTC Time: 7/19/2024, 08:49
Your Time:

Orient, OH Regional Weather

Expires:202407190900;;293178
ASUS41 KCLE 190812
RWRCLE
OHIO REGIONAL WEATHER ROUNDUP
NATIONAL WEATHER SERVICE WILMINGTON, OH
400 AM EDT FRI JUL 19 2024

NOTE: "FAIR" INDICATES FEW OR NO CLOUDS BELOW 12,000 FEET WITH NO
SIGNIFICANT WEATHER AND/OR OBSTRUCTIONS TO VISIBILITY.


OHZ036-037-039>041-045>050-054>059-063>069-073>076-082>088-190900-
  CENTRAL AND SOUTHEAST OHIO
  
CITY           SKY/WX    TMP DP  RH WIND       PRES   REMARKS
COLUMBUS       FAIR      61  55  81 CALM      30.15S                  
OSU AIRPORT    FAIR      59  54  83 N5        30.16S                  
BOLTON FIELD   FAIR      60  55  81 NE3       30.17R                  
RICKENBACK AFB FAIR      59  55  87 NE5       30.15S                  
NEWARK         FAIR      59  55  87 NE3       30.15S                  
MARION           N/A    N/A N/A N/A MISG      30.17S                  
LANCASTER      FAIR      55  55 100 CALM      30.16S                  
ZANESVILLE     FAIR      58  55  90 N3        30.15S                  
NEW PHILLY     FAIR      56  54  93 CALM      30.16S                  
$$
  

SKY/WX - Weather  TMP - Temperature  DP - Dew Point  RH - Humidity
WIND - Wind Direction/Speed PRES - Barometric Pressure VSB - Visibility
WCI - Wind Chill Index E13G22 Wind - East Wind 13 mph/Gusts of 22 mph

Trending Headlines

Trending Entertainment Headlines

Orient Radar Loop

Use the map search tool if you want to place a location marker on the radar map...

Orient Quick Facts

National Two Day Weather Forecast


E-mail the Orient Weather Forecast

Voice your opinion or tell us about page issues...